Regional Weather Roundup
Issued by NWS

Home | Current Version | Previous Version | Graphics & Text | Print | Product List | Glossary On
Versions: 1 2 3 4 5 6 7 8 9 10 11 12 13 14 15 16 17 18 19 20 21 22 23 24 25 26 27 28 29 30 31 32 33 34 35 36 37 38 39 40 41 42 43 44 45 46 47 48 49 50
000
ASUS43 KBIS 290810
RWRND

NORTH DAKOTA REGIONAL WEATHER ROUNDUP
NATIONAL WEATHER SERVICE BISMARCK ND
300 AM CDT THU SEP 29 2016

NOTE: "FAIR" INDICATES FEW OR NO CLOUDS BELOW 12,000 FEET WITH NO
SIGNIFICANT WEATHER AND/OR OBSTRUCTIONS TO VISIBILITY.


NDZ001>003-009>011-017-290900-
NORTHWEST NORTH DAKOTA

CITY           SKY/WX    TMP DP  RH WIND       PRES   REMARKS
WILLISTON      CLEAR     55  38  52 S7        30.28R
MINOT          CLEAR     43  42  97 E8        30.34S
$$

NDZ018>021-031>035-040>046-290900-
SOUTHWEST NORTH DAKOTA

CITY           SKY/WX    TMP DP  RH WIND       PRES   REMARKS
BISMARCK       CLEAR     44  42  93 SE5       30.38F
DICKINSON      CLEAR     48  41  76 SE13      30.30F
GARRISON         N/A     46  46 100 SE5       30.35S
HETTINGER ARPT CLEAR     47  41  80 E5        30.35S
$$

NDZ004>008-012>016-024-026-027-054-290900-
NORTHEAST NORTH DAKOTA

CITY           SKY/WX    TMP DP  RH WIND       PRES   REMARKS
GRAND FORKS    PTCLDY    40  38  93 CALM      30.43S FOG
DEVILS LAKE    CLEAR     49  46  90 SE8       30.41F
$$

NDZ022-023-025-028>030-036>039-047>053-290900-
SOUTHEAST NORTH DAKOTA

CITY           SKY/WX    TMP DP  RH WIND       PRES   REMARKS
FARGO          CLEAR     44  42  93 E3        30.43R
JAMESTOWN      CLEAR     39  38  96 CALM      30.41S FOG
$$




USA.gov is the U.S. government's official web portal to all federal, state and local government web resources and services.